Regional Weather Roundup
Issued by NWS Goodland, KS

Home | Current Version | Previous Version | Text Only | Print | Product List | Glossary On
Versions: 1 2 3 4 5 6 7 8 9 10 11 12 13 14 15 16 17 18 19 20 21 22 23 24 25 26 27 28 29 30 31 32 33 34 35 36 37 38 39 40 41 42 43 44 45 46 47 48 49 50
000
ASUS43 KGLD 271208
RWRGLD

GOODLAND FORECAST AREA HOURLY WEATHER ROUNDUP
NATIONAL WEATHER SERVICE GOODLAND KS
600 AM MDT SAT MAY 27 2017

...OFFICIAL OBSERVATIONS...

CITY           SKY/WX    TMP DP  RH WIND       PRES   REMARKS
GOODLAND KS    CLOUDY    52  51  97 NW16      29.93R
HILL CITY KS   CLOUDY    58  57  97 CALM      29.87F
IMPERIAL NEB   CLOUDY    51  49  92 N7        29.95R
MCCOOK NEB     MOCLDY    54  53  97 N8        29.90R
AKRON CO       CLOUDY    50  47  89 N10       30.00R
BURLINGTON CO  MOCLDY    53  51  93 NW13      29.97R
LIMON CO       CLOUDY    48  46  93 N12       30.03R
$$

...UNOFFICIAL OBSERVATIONS...

CITY           SKY/WX    TMP DP  RH WIND       PRES   REMARKS
LENORA KS        N/A     56  32  40 MISG        N/A
NORTON KS      LGT RAIN  57  50  77 CALM      29.83R
SHARON SPRINGS   N/A     55  51  88 NW5         N/A
TRENTON NEB      N/A     52  32  46 N6          N/A
$$



USA.gov is the U.S. government's official web portal to all federal, state and local government web resources and services.